Соседи

Ник (возраст) Город, адрес С нами с На сайте Cообщений
в форуме/
комменты
Фотографии/
заметки
nata13071981 (18) 03.10.18 0/0 0/0
evsav (18) 03.10.18 08.10.18 20:45 0/0 0/0
checheole (18) 02.10.18 0/0 0/0
tima08012012 (18) 02.10.18 02.10.18 18:18 0/0 1/0
gabrielgochelashvili (18) 02.10.18 02.10.18 17:49 0/0 0/0
dondenis (18) 02.10.18 02.10.18 18:11 0/0 0/0
dragon27 (18) 02.10.18 02.10.18 11:25 0/0 0/0
romanrooir (18) 02.10.18 11.10.18 15:03 0/1 0/0
russo (48) 02.10.18 02.10.18 11:08 0/0 0/0
strongerer (18) 02.10.18 02.10.18 11:14 0/0 3/0
toykiller (47) 02.10.18 02.10.18 10:56 3/0 0/0
rico (37) 02.10.18 02.10.18 09:50 3/0 0/0
wovka (18) 02.10.18 06.10.18 22:52 1/0 0/0
sariivan.92 (18) 02.10.18 02.10.18 00:18 0/0 0/0
coffeemoose (18) 01.10.18 05.10.18 12:29 0/0 0/0
contramarka (18) 01.10.18 16.10.18 00:01 1/0 0/0
sanrayz (45) 01.10.18 04.10.18 12:57 0/0 0/0
sokolova (18) 01.10.18 01.10.18 18:26 0/1 0/0
lelya251 (38) 01.10.18 01.10.18 14:47 0/0 1/0
alex3636 (18) 01.10.18 01.10.18 10:35 1/0 0/0
nsk-sergey (18) 30.09.18 01.10.18 21:10 0/0 0/0
ura001 (18) 30.09.18 30.09.18 18:34 0/0 0/0
maks5c23 (18) 30.09.18 30.09.18 12:32 0/0 0/0
tempus-nemini (18) 30.09.18 13.10.18 11:58 0/0 0/0
andzholy (27) 29.09.18 10.10.18 12:52 13/0 0/0
olesay (18) 29.09.18 0/0 0/0
surdna (18) 29.09.18 08.10.18 16:46 0/0 0/0
odilak_1917 (18) 28.09.18 03.10.18 17:05 1/0 0/0
gfirus (18) 28.09.18 28.09.18 17:07 1/0 0/0
tataganskoe (18) 28.09.18 28.09.18 15:57 0/0 0/0
bugreevaalexandra87 (18) 28.09.18 28.09.18 13:11 0/0 0/0
elena1980 (18) 28.09.18 28.09.18 15:43 1/0 0/0
seskova (18) 28.09.18 16.10.18 01:44 2/0 0/0
cawa153i (18) 28.09.18 28.09.18 05:11 0/0 0/0
nadzyusha (41) 28.09.18 11.10.18 13:41 0/2 0/0
ranny (25) 27.09.18 29.09.18 18:54 13/0 0/0
jedi1986 (18) 27.09.18 09.10.18 09:05 0/1 0/0
favorite0406 (18) 27.09.18 10.10.18 18:05 0/0 0/0
n_n_m (18) 27.09.18 15.10.18 10:20 0/1 0/0
kilisandra2009 (18) 27.09.18 27.09.18 15:45 0/0 0/0
tatiana777 (18) 27.09.18 27.09.18 12:32 0/0 0/0
Oleg Putrin (28) 27.09.18 27.09.18 12:15 0/0 0/0
baskakova_s (18) 27.09.18 27.09.18 12:38 0/0 0/0
lisica555 (18) 26.09.18 26.09.18 21:49 0/0 0/0
dashulka (18) 26.09.18 26.09.18 20:31 0/2 0/0
atanesan2004 (18) 26.09.18 30.09.18 19:02 0/0 0/0
gg4 (18) 26.09.18 26.09.18 12:11 1/0 0/0
lisa1958 (18) 26.09.18 26.09.18 11:49 0/1 0/0
accountmsk (18) 26.09.18 26.09.18 10:03 0/0 0/0
ranga (40) 26.09.18 15.10.18 16:13 0/2 0/0


Чтобы добавить информацию о себе заполните регистрационную анкету


Дни рождения
Поздравляем (121): MOHCTP (38), U4 (38), hronik (13), djam (32), candy-mia (29), katenchik (12), dim-dim456 (12), karLina (28), Andreanna (24), Germann (11), AlexMoroz (34), Ellena (38), Leonardo-co (10), 2145 (10), valia99 (77), lionig (54), mens09 (38), 3642823 (9), tatyana58 (60), u96 (9), dargoavaretz (9), ludmila1983 (9), c-grad (39), margo535 (42), ekibastos (58), nucha (35), leda (40), ellafree (34), alekskl (33), trinks (32), tiresxt (8), andreyg (8), serjio11 (8), annage (8), devione (8), doberman1980 (38), andrey_boss (39), sironya (38), plohish_ka (118), wishch (44), avatarka (31), melnat (36), svetlana_s_o (34), hyp0hektik (27), kenz (38), tatyana-kozar (42), leprosorium (39), ekaterina999 (42), icevita (7), zkw (7), iskra_cat (7), dinale (7), valentinka719 (7), nata31122011 (7), swetlanatrifonova (42), chgr73 (28), aleks_vasilenko (31), remy_mrz (28), city-f (9), katiche2609 (28), barabashin (41), aesuper (24), eei (24), ded_vandal (24), omega-group (24), avantoo (24), shopmatras (24), graftelegraf (46), rdfhnbhf (34), sovetnik1980 (24), hitrik (24), veselova773 (24), mishalyub06 (24), mishal06 (24), ruson (24), novoselam (24), irishka82 (36), denis16 (34), duk (48), katenka084 (35), kov_ev (32), mariam442781515 (27), dvs (49), maria_zvezdny (45), maria_silencio (45), spez10 (43), marusya27 (34), nelli96 (22), evgen123 (30), katerinakor (34), bangg (28), romanesb (23), savdeeva (23), hfljcnm (23), omelchyk (23), sashapopova86 (23), vladlengutenberg (23), master1960 (23), rok88 (23), q1w2e3r4t54 (23), flowersalina (23), istina (51), janna1610 (34), istina2014 (51), pasuk (22), igor-79ru (39), massage-viktor (38), dashaaa (27), vssteble-1488 (23), diana1984 (34), dasha91 (27), saverdan (38), kat12012011 (32), trikvetr.psy (38), mamont22 (26), a.s.k.57 (61), igorius2010 (20), inspiration8nsg (22), yuriolegovich (54), alena_somova_90 (19), gas62rus (30)